Content
SEND FEEDBACK

Daily
Averages
Monthly
Summary
United States of America

ROCK HILL, NEW YORK


Home > North America > United States > New York
Elevation: 1260 feet     Latitude: 41 35N     Longitude: 074 37W

WEATHER
 
SELECT A DAY
Number of Records: 443,980;   Date Range: 1/1/95 - 9/16/14
 
SHARE

PRINT THIS DATA

[ ← Previous Day ]
WEATHER ALMANAC - APRIL 18, 2014
[ Next Day → ]
[ °C ]   °F
Weather ElementAverageHighLow
Temperature37 °F46.4 °F (3:15 pm)26.6 °F (3:15 am)
Dewpoint25.2 °F28.4 °F (7:55 am)21.2 °F (3:15 pm)
Humidity65.5 %93 % (3:15 am)37 % (3:15 pm)
Barometer30.40 in30.57 in (1:35 am)30.24 in (11:15 pm)
Wind Speed4.3 mph11.5 mph (5:55 pm)
Weather ElementAverage
Visibility10 mi
Wind DirectionESE (106.5 °)

Weather ElementTotal
Precipitation---
Heating Degree Days28.5 (Base 65)
Averaged from 69 records on April 18, 2014
WEATHER CONDITIONS BREAKOUT
WIND DIRECTION BREAKOUT
WEATHER BY HOUR - APRIL 18, 2014
[ °C ]   °F
Local TimeTemperatureDewpointHumidityBarometerVisibilityWind DirectionWind SpeedGust SpeedPrecipitationEventsConditions
12:35 AM30.2 °F23.0 °F75 %30.56 in10.0 miSE (130°)4.6 mphClear
12:55 AM30.2 °F24.8 °F80 %30.56 in10.0 miSE (130°)4.6 mphClear
1:15 AM30.2 °F24.8 °F80 %30.56 in10.0 miSSE (160°)3.5 mphClear
1:35 AM30.2 °F24.8 °F80 %30.57 in10.0 miSSE (160°)3.5 mphClear
1:55 AM30.2 °F24.8 °F80 %30.56 in10.0 miCalmClear
2:15 AM28.4 °F24.8 °F86 %30.56 in10.0 miCalmClear
2:35 AM28.4 °F24.8 °F86 %30.56 in10.0 miCalmClear
2:55 AM28.4 °F24.8 °F86 %30.55 in10.0 miCalmScattered Clouds
3:15 AM26.6 °F24.8 °F93 %30.53 in10.0 miENE (70°)3.5 mphMostly Cloudy
3:55 AM26.6 °F24.8 °F93 %30.50 in10.0 miEast (90°)3.5 mphScattered Clouds
4:15 AM26.6 °F23.0 °F86 %30.48 in10.0 miENE (70°)3.5 mphScattered Clouds
4:35 AM26.6 °F24.8 °F93 %30.46 in10.0 miNE (50°)3.5 mphClear
4:55 AM26.6 °F24.8 °F93 %30.46 in10.0 miCalmClear
5:15 AM26.6 °F24.8 °F93 %30.46 in10.0 miCalmClear
5:35 AM28.4 °F24.8 °F86 %30.47 in10.0 miCalmMostly Cloudy
5:55 AM28.4 °F24.8 °F86 %30.47 in10.0 miCalmOvercast
6:15 AM26.6 °F24.8 °F93 %30.47 in10.0 miEast (90°)3.5 mphMostly Cloudy
6:35 AM26.6 °F24.8 °F93 %30.47 in10.0 miCalmMostly Cloudy
6:55 AM26.6 °F24.8 °F93 %30.48 in10.0 miCalmOvercast
7:15 AM28.4 °F26.6 °F93 %30.48 in10.0 miSE (140°)4.6 mphOvercast
7:35 AM30.2 °F26.6 °F86 %30.48 in10.0 miSE (140°)4.6 mphOvercast
7:55 AM30.2 °F28.4 °F93 %30.49 in10.0 miSE (130°)4.6 mphOvercast
8:15 AM30.2 °F26.6 °F86 %30.50 in10.0 miSE (130°)5.8 mphOvercast
8:35 AM30.2 °F26.6 °F86 %30.50 in10.0 miSE (130°)6.9 mphOvercast
8:55 AM32.0 °F26.6 °F80 %30.50 in10.0 miEast (100°)5.8 mphOvercast
9:15 AM32.0 °F26.6 °F80 %30.49 in10.0 miESE (120°)8.1 mphMostly Cloudy
9:35 AM32.0 °F26.6 °F80 %30.48 in10.0 miSE (130°)6.9 mphMostly Cloudy
9:55 AM33.8 °F26.6 °F75 %30.47 in10.0 miSSE (150°)5.8 mphMostly Cloudy
10:15 AM33.8 °F26.6 °F75 %30.46 in10.0 miESE (120°)5.8 mphScattered Clouds
10:35 AM35.6 °F26.6 °F70 %30.45 in10.0 miEast (90°)5.8 mphPartly Cloudy
10:55 AM35.6 °F26.6 °F70 %30.44 in10.0 miESE (120°)5.8 mphPartly Cloudy
11:15 AM37.4 °F24.8 °F60 %30.43 in10.0 miCalmClear
11:35 AM37.4 °F24.8 °F60 %30.43 in10.0 miESE (120°)9.2 mphClear
11:55 AM39.2 °F26.6 °F61 %30.43 in10.0 miSSE (150°)9.2 mphClear
12:15 PM39.2 °F24.8 °F56 %30.42 in10.0 miSE (140°)5.8 mphClear
12:55 PM42.8 °F23.0 °F46 %30.41 in10.0 miSSE (160°)5.8 mphClear
1:15 PM42.8 °F24.8 °F49 %30.40 in10.0 miSE (140°)5.8 mphClear
1:35 PM44.6 °F24.8 °F46 %30.39 in10.0 miSE (140°)4.6 mphClear
1:55 PM44.6 °F23.0 °F43 %30.39 in10.0 miSouth (170°)8.1 mphClear
2:15 PM44.6 °F24.8 °F46 %30.38 in10.0 miSouth (180°)6.9 mphClear
2:35 PM44.6 °F23.0 °F43 %30.36 in10.0 miSouth (190°)8.1 mphClear
2:55 PM44.6 °F23.0 °F43 %30.36 in10.0 miSE (130°)9.2 mphClear
3:15 PM46.4 °F21.2 °F37 %30.36 in10.0 miSouth (180°)8.1 mphClear
3:35 PM44.6 °F23.0 °F43 %30.34 in10.0 miSouth (170°)6.9 mphClear
3:55 PM44.6 °F24.8 °F46 %30.33 in10.0 miSSE (160°)8.1 mphClear
4:15 PM46.4 °F24.8 °F43 %30.32 in10.0 miSE (140°)6.9 mphClear
4:35 PM46.4 °F24.8 °F43 %30.31 in10.0 miCalmClear
4:55 PM46.4 °F24.8 °F43 %30.31 in10.0 miSSE (160°)4.6 mphClear
5:15 PM46.4 °F24.8 °F43 %30.30 in10.0 miSSE (150°)8.1 mphClear
5:35 PM46.4 °F24.8 °F43 %30.29 in10.0 miSSE (150°)9.2 mphClear
5:55 PM46.4 °F24.8 °F43 %30.28 in10.0 miSSE (160°)11.5 mphClear
6:15 PM46.4 °F24.8 °F43 %30.28 in10.0 miSSE (160°)8.1 mphClear
6:35 PM46.4 °F24.8 °F43 %30.27 in10.0 miSSE (160°)8.1 mphClear
6:55 PM46.4 °F24.8 °F43 %30.27 in10.0 miSouth (180°)4.6 mphClear
7:15 PM44.6 °F24.8 °F46 %30.27 in10.0 miSouth (180°)4.6 mphClear
7:35 PM44.6 °F24.8 °F46 %30.27 in10.0 miCalmClear
7:55 PM44.6 °F24.8 °F46 %30.26 in10.0 miSSE (150°)3.5 mphClear
8:15 PM42.8 °F24.8 °F49 %30.26 in10.0 miCalmClear
8:35 PM42.8 °F24.8 °F49 %30.25 in10.0 miCalmClear
8:55 PM42.8 °F24.8 °F49 %30.26 in10.0 miCalmClear
9:15 PM42.8 °F24.8 °F49 %30.27 in10.0 miSSW (210°)3.5 mphClear
9:35 PM42.8 °F26.6 °F53 %30.26 in10.0 miSouth (190°)4.6 mphClear
9:55 PM41.0 °F26.6 °F57 %30.26 in10.0 miSSW (210°)4.6 mphClear
10:15 PM41.0 °F26.6 °F57 %30.25 in10.0 miSSW (200°)4.6 mphClear
10:35 PM39.2 °F26.6 °F61 %30.25 in10.0 miSW (230°)3.5 mphClear
10:55 PM39.2 °F26.6 °F61 %30.25 in10.0 miWSW (240°)3.5 mphClear
11:15 PM37.4 °F28.4 °F70 %30.24 in10.0 miCalmClear
11:35 PM37.4 °F26.6 °F65 %30.24 in10.0 miCalmClear
11:55 PM37.4 °F26.6 °F65 %30.24 in10.0 miCalmClear
Hourly data recorded from KMSV, located miles away from Rock Hill, New York







STORIES FROM OUR PARTNERS